| time (UTC) | temp F | wind direction | speed knots | gust knots | rain 1hr in | rain 24hr in | rain mn in | humidity % | barometer mb |
| 20260906065604 | 77 | 271 | 0.9 | 0.9 | 0.00 | 0.00 | 0.00 | 41 | 1013.1 |
| 20260906065104 | 77 | 271 | 0.9 | 1.7 | 0.00 | 0.00 | 0.00 | 40 | 1012.9 |
| 20260906064604 | 77 | 271 | 0.9 | 1.7 | 0.00 | 0.00 | 0.00 | 41 | 1012.9 |
| 20260906064104 | 77 | 271 | 0.9 | 1.7 | 0.00 | 0.00 | 0.00 | 40 | 1013.0 |
| 20260906063603 | 77 | 271 | 0.0 | 1.7 | 0.00 | 0.00 | 0.00 | 40 | 1013.1 |
| 20260906063104 | 78 | 271 | 0.0 | 0.9 | 0.00 | 0.00 | 0.00 | 40 | 1013.2 |
| 20260906062603 | 77 | 271 | 0.0 | 0.0 | 0.00 | 0.00 | 0.00 | 40 | 1013.3 |
| 20260906061104 | 77 | 271 | 0.0 | 0.9 | 0.00 | 0.00 | 0.00 | 42 | 1013.3 |
| 20260906060604 | 77 | 271 | 0.0 | 0.0 | 0.00 | 0.00 | 0.00 | 41 | 1013.3 |
| 20260906060108 | 77 | 271 | 0.0 | 0.9 | 0.00 | 0.00 | 0.00 | 41 | 1013.3 |
| 20260906055604 | 77 | 271 | 0.0 | 0.9 | 0.00 | 0.00 | 0.00 | 41 | 1013.3 |
| 20260906055104 | 77 | 271 | 0.0 | 0.9 | 0.00 | 0.00 | 0.00 | 41 | 1013.3 |
| 20260906054604 | 77 | 271 | 0.0 | 0.0 | 0.00 | 0.00 | 0.00 | 41 | 1013.3 |
| 20260906054105 | 77 | 271 | 0.0 | 0.9 | 0.00 | 0.00 | 0.00 | 41 | 1013.3 |
| 20260906053104 | 78 | 271 | 0.0 | 0.0 | 0.00 | 0.00 | 0.00 | 40 | 1013.3 |
| 20260906052604 | 78 | 271 | 0.0 | 0.9 | 0.00 | 0.00 | 0.00 | 39 | 1013.3 |
| 20260906052105 | 78 | 271 | 0.0 | 0.9 | 0.00 | 0.00 | 0.00 | 38 | 1013.2 |
| 20260906051603 | 78 | 271 | 0.0 | 0.9 | 0.00 | 0.00 | 0.00 | 39 | 1013.3 |
| 20260906051104 | 78 | 271 | 0.0 | 0.0 | 0.00 | 0.00 | 0.00 | 39 | 1013.3 |
| 20260906050604 | 78 | 271 | 0.0 | 0.0 | 0.00 | 0.00 | 0.00 | 38 | 1013.3 |
| 20260906045604 | 78 | 271 | 0.0 | 0.9 | 0.00 | 0.00 | 0.00 | 38 | 1013.4 |
| 20260906045104 | 78 | 271 | 0.0 | 0.9 | 0.00 | 0.00 | 0.00 | 39 | 1013.3 |
| 20260906044604 | 78 | 271 | 0.0 | 0.9 | 0.00 | 0.00 | 0.00 | 40 | 1013.3 |
| 20260906044104 | 78 | 271 | 0.0 | 0.9 | 0.00 | 0.00 | 0.00 | 40 | 1013.3 |
| 20260906042604 | 78 | 271 | 0.0 | 0.9 | 0.00 | 0.00 | 0.00 | 40 | 1013.3 |
| 20260906042106 | 79 | 271 | 0.0 | 0.9 | 0.00 | 0.00 | 0.00 | 40 | 1013.3 |
| 20260906041604 | 79 | 271 | 0.0 | 0.9 | 0.00 | 0.00 | 0.00 | 40 | 1013.4 |
| 20260906041103 | 79 | 271 | 0.0 | 0.9 | 0.00 | 0.00 | 0.00 | 39 | 1013.3 |
| 20260906040604 | 79 | 271 | 0.0 | 0.9 | 0.00 | 0.00 | 0.00 | 39 | 1013.4 |
| 20260906040105 | 78 | 271 | 0.0 | 0.0 | 0.00 | 0.00 | 0.00 | 38 | 1013.5 |
| 20260906035604 | 79 | 271 | 0.0 | 0.0 | 0.00 | 0.00 | 0.00 | 39 | 1013.4 |
| 20260906035103 | 79 | 271 | 0.0 | 0.9 | 0.00 | 0.00 | 0.00 | 38 | 1013.4 |
| 20260906034604 | 79 | 271 | 0.0 | 2.6 | 0.00 | 0.00 | 0.00 | 38 | 1013.4 |
| 20260906033104 | 80 | 270 | 1.7 | 6.1 | 0.00 | 0.00 | 0.00 | 38 | 1013.3 |
| 20260906032603 | 80 | 272 | 4.3 | 6.1 | 0.00 | 0.00 | 0.00 | 37 | 1013.2 |
| 20260906032104 | 81 | 276 | 2.6 | 4.3 | 0.00 | 0.00 | 0.00 | 37 | 1013.2 |
| 20260906031604 | 82 | 272 | 1.7 | 4.3 | 0.00 | 0.00 | 0.00 | 36 | 1013.3 |
| 20260906031106 | 82 | 221 | 0.0 | 2.6 | 0.00 | 0.00 | 0.00 | 36 | 1013.1 |
| 20260906030604 | 82 | 195 | 0.0 | 2.6 | 0.00 | 0.00 | 0.00 | 35 | 1013.2 |
| 20260906030109 | 82 | 178 | 0.9 | 1.7 | 0.00 | 0.00 | 0.00 | 35 | 1013.0 |
| 20260906024604 | 82 | 209 | 0.0 | 1.7 | 0.00 | 0.00 | 0.00 | 34 | 1012.9 |
| 20260906024104 | 82 | 209 | 0.9 | 2.6 | 0.00 | 0.00 | 0.00 | 34 | 1012.9 |
| 20260906023604 | 83 | 209 | 0.9 | 2.6 | 0.00 | 0.00 | 0.00 | 34 | 1012.9 |
| 20260906023104 | 83 | 209 | 0.0 | 2.6 | 0.00 | 0.00 | 0.00 | 34 | 1012.9 |
| 20260906022604 | 83 | 209 | 0.9 | 2.6 | 0.00 | 0.00 | 0.00 | 34 | 1012.8 |
| 20260906022104 | 83 | 209 | 0.0 | 4.3 | 0.00 | 0.00 | 0.00 | 33 | 1012.7 |
| 20260906021604 | 84 | 209 | 0.9 | 4.3 | 0.00 | 0.00 | 0.00 | 33 | 1012.5 |
| 20260906021106 | 84 | 221 | 0.9 | 4.3 | 0.00 | 0.00 | 0.00 | 33 | 1012.5 |
| 20260906020604 | 85 | 248 | 0.9 | 4.3 | 0.00 | 0.00 | 0.00 | 33 | 1012.5 |
| 20260906020104 | 85 | 241 | 1.7 | 5.2 | 0.00 | 0.00 | 0.00 | 31 | 1012.4 |
| 20260906015604 | 85 | 225 | 1.7 | 7.0 | 0.00 | 0.00 | 0.00 | 31 | 1012.4 |
| 20260906014603 | 86 | 245 | 2.6 | 7.0 | 0.00 | 0.00 | 0.00 | 31 | 1012.4 |
| 20260906014103 | 87 | 249 | 4.3 | 7.0 | 0.00 | 0.00 | 0.00 | 31 | 1012.4 |
| 20260906013604 | 87 | 240 | 3.5 | 7.0 | 0.00 | 0.00 | 0.00 | 31 | 1012.4 |
| 20260906012604 | 87 | 238 | 4.3 | 6.1 | 0.00 | 0.00 | 0.00 | 30 | 1012.4 |
| 20260906012104 | 87 | 222 | 2.6 | 7.0 | 0.00 | 0.00 | 0.00 | 31 | 1012.5 |
| 20260906011604 | 87 | 239 | 4.3 | 7.0 | 0.00 | 0.00 | 0.00 | 30 | 1012.4 |
| 20260906011106 | 87 | 246 | 3.5 | 7.0 | 0.00 | 0.00 | 0.00 | 31 | 1012.4 |
| 20260906010604 | 87 | 258 | 4.3 | 7.0 | 0.00 | 0.00 | 0.00 | 31 | 1012.5 |
| 20260906010107 | 88 | 246 | 2.6 | 7.0 | 0.00 | 0.00 | 0.00 | 31 | 1012.4 |
| 20260906005604 | 88 | 265 | 4.3 | 6.1 | 0.00 | 0.00 | 0.00 | 29 | 1012.5 |
| 20260906005103 | 88 | 194 | 3.5 | 5.2 | 0.00 | 0.00 | 0.00 | 29 | 1012.5 |
| 20260906004604 | 87 | 229 | 2.6 | 7.0 | 0.00 | 0.00 | 0.00 | 30 | 1012.5 |
| 20260906004104 | 87 | 267 | 4.3 | 7.0 | 0.00 | 0.00 | 0.00 | 31 | 1012.5 |
| 20260906003104 | 87 | 228 | 4.3 | 7.0 | 0.00 | 0.00 | 0.00 | 31 | 1012.4 |
| 20260906002604 | 87 | 262 | 3.5 | 6.1 | 0.00 | 0.00 | 0.00 | 32 | 1012.4 |
| 20260906002105 | 86 | 229 | 2.6 | 7.0 | 0.00 | 0.00 | 0.00 | 32 | 1012.4 |
| 20260906001603 | 86 | 278 | 4.3 | 7.0 | 0.00 | 0.00 | 0.00 | 33 | 1012.4 |
| 20260906000603 | 86 | 280 | 4.3 | 8.7 | 0.00 | 0.00 | 0.00 | 31 | 1012.4 |
| 20260905235604 | 87 | 255 | 4.3 | 7.0 | 0.00 | 0.00 | 0.00 | 32 | 1012.4 |
| 20260905235104 | 87 | 287 | 4.3 | 7.8 | 0.00 | 0.00 | 0.00 | 33 | 1012.4 |
| 20260905234104 | 89 | 260 | 3.5 | 7.8 | 0.00 | 0.00 | 0.00 | 30 | 1012.4 |
| 20260905233604 | 89 | 261 | 1.7 | 8.7 | 0.00 | 0.00 | 0.00 | 29 | 1012.4 |
| 20260905233103 | 89 | 267 | 4.3 | 8.7 | 0.00 | 0.00 | 0.00 | 29 | 1012.4 |
| 20260905232604 | 89 | 220 | 2.6 | 8.7 | 0.00 | 0.00 | 0.00 | 29 | 1012.4 |
| 20260905232104 | 89 | 225 | 4.3 | 11.3 | 0.00 | 0.00 | 0.00 | 29 | 1012.4 |
| 20260905231104 | 88 | 165 | 3.5 | 8.7 | 0.00 | 0.00 | 0.00 | 30 | 1012.5 |
| 20260905230604 | 88 | 226 | 3.5 | 8.7 | 0.00 | 0.00 | 0.00 | 30 | 1012.5 |
| 20260905230107 | 89 | 244 | 4.3 | 7.0 | 0.00 | 0.00 | 0.00 | 30 | 1012.5 |
| 20260905225104 | 89 | 252 | 2.6 | 7.0 | 0.00 | 0.00 | 0.00 | 29 | 1012.6 |
| 20260905224604 | 89 | 251 | 4.3 | 7.0 | 0.00 | 0.00 | 0.00 | 29 | 1012.6 |
| 20260905223604 | 89 | 254 | 5.2 | 8.7 | 0.00 | 0.00 | 0.00 | 27 | 1012.7 |
| 20260905223104 | 89 | 249 | 4.3 | 11.3 | 0.00 | 0.00 | 0.00 | 28 | 1012.7 |
| 20260905222104 | 91 | 259 | 4.3 | 10.4 | 0.00 | 0.00 | 0.00 | 26 | 1012.8 |
| 20260905221603 | 91 | 269 | 5.2 | 10.4 | 0.00 | 0.00 | 0.00 | 26 | 1012.9 |
| 20260905221103 | 90 | 240 | 5.2 | 10.4 | 0.00 | 0.00 | 0.00 | 28 | 1012.9 |
| 20260905220604 | 89 | 257 | 3.5 | 11.3 | 0.00 | 0.00 | 0.00 | 27 | 1013.0 |
| 20260905220113 | 89 | 185 | 2.6 | 11.3 | 0.00 | 0.00 | 0.00 | 27 | 1013.1 |
| 20260905215603 | 89 | 282 | 4.3 | 10.4 | 0.00 | 0.00 | 0.00 | 26 | 1013.1 |
| 20260905215103 | 89 | 273 | 4.3 | 10.4 | 0.00 | 0.00 | 0.00 | 26 | 1013.1 |
| 20260905214604 | 89 | 257 | 5.2 | 8.7 | 0.00 | 0.00 | 0.00 | 25 | 1013.2 |
| 20260905213604 | 90 | 261 | 4.3 | 8.7 | 0.00 | 0.00 | 0.00 | 25 | 1013.3 |
| 20260905213104 | 90 | 260 | 4.3 | 8.7 | 0.00 | 0.00 | 0.00 | 25 | 1013.4 |
| 20260905212606 | 89 | 262 | 6.1 | 10.4 | 0.00 | 0.00 | 0.00 | 25 | 1013.4 |
| 20260905212105 | 90 | 272 | 5.2 | 10.4 | 0.00 | 0.00 | 0.00 | 25 | 1013.4 |
| 20260905211603 | 90 | 271 | 6.1 | 10.4 | 0.00 | 0.00 | 0.00 | 24 | 1013.4 |
| 20260905211104 | 91 | 276 | 5.2 | 10.4 | 0.00 | 0.00 | 0.00 | 25 | 1013.4 |
| 20260905210604 | 91 | 302 | 3.5 | 10.4 | 0.00 | 0.00 | 0.00 | 25 | 1013.5 |
| 20260905210109 | 91 | 264 | 5.2 | 11.3 | 0.00 | 0.00 | 0.00 | 25 | 1013.5 |
| 20260905205604 | 91 | 275 | 6.1 | 11.3 | 0.00 | 0.00 | 0.00 | 25 | 1013.4 |
| 20260905205104 | 91 | 254 | 5.2 | 11.3 | 0.00 | 0.00 | 0.00 | 22 | 1013.6 |
| 20260905204604 | 90 | 267 | 7.8 | 11.3 | 0.00 | 0.00 | 0.00 | 24 | 1013.6 |
| 20260905204103 | 90 | 290 | 6.1 | 7.8 | 0.00 | 0.00 | 0.00 | 22 | 1013.7 |
| 20260905203104 | 89 | 252 | 4.3 | 12.2 | 0.00 | 0.00 | 0.00 | 22 | 1013.7 |
| 20260905202603 | 89 | 280 | 6.1 | 10.4 | 0.00 | 0.00 | 0.00 | 23 | 1013.7 |
| 20260905202103 | 89 | 267 | 5.2 | 10.4 | 0.00 | 0.00 | 0.00 | 22 | 1013.7 |
| 20260905201603 | 89 | 270 | 4.3 | 10.4 | 0.00 | 0.00 | 0.00 | 23 | 1013.7 |
| 20260905200604 | 89 | 272 | 5.2 | 8.7 | 0.00 | 0.00 | 0.00 | 21 | 1013.8 |
| 20260905200111 | 89 | 273 | 5.2 | 8.7 | 0.00 | 0.00 | 0.00 | 20 | 1013.8 |
| 20260905195604 | 88 | 282 | 3.5 | 10.4 | 0.00 | 0.00 | 0.00 | 19 | 1013.8 |
| 20260905195104 | 88 | 273 | 5.2 | 10.4 | 0.00 | 0.00 | 0.00 | 21 | 1014.0 |
| 20260905194604 | 87 | 291 | 3.5 | 10.4 | 0.00 | 0.00 | 0.00 | 20 | 1014.0 |
| 20260905194104 | 87 | 291 | 4.3 | 10.4 | 0.00 | 0.00 | 0.00 | 22 | 1014.1 |
| 20260905193603 | 88 | 274 | 5.2 | 8.7 | 0.00 | 0.00 | 0.00 | 19 | 1014.2 |
| 20260905192604 | 88 | 301 | 5.2 | 7.0 | 0.00 | 0.00 | 0.00 | 21 | 1014.3 |
| 20260905191604 | 87 | 259 | 4.3 | 6.1 | 0.00 | 0.00 | 0.00 | 21 | 1014.3 |
| 20260905191104 | 87 | 292 | 2.6 | 7.0 | 0.00 | 0.00 | 0.00 | 21 | 1014.4 |
| 20260905190107 | 87 | 308 | 4.3 | 7.8 | 0.00 | 0.00 | 0.00 | 20 | 1014.5 |
| 20260905185104 | 86 | 272 | 4.3 | 7.0 | 0.00 | 0.00 | 0.00 | 21 | 1014.6 |
| 20260905184604 | 86 | 325 | 1.7 | 6.1 | 0.00 | 0.00 | 0.00 | 20 | 1014.6 |
| 20260905184105 | 85 | 290 | 2.6 | 6.1 | 0.00 | 0.00 | 0.00 | 21 | 1014.7 |
| 20260905183604 | 85 | 286 | 4.3 | 6.1 | 0.00 | 0.00 | 0.00 | 21 | 1014.7 |
| 20260905183104 | 85 | 338 | 2.6 | 5.2 | 0.00 | 0.00 | 0.00 | 21 | 1014.8 |
| 20260905182604 | 84 | 275 | 2.6 | 5.2 | 0.00 | 0.00 | 0.00 | 21 | 1014.9 |
| 20260905181604 | 83 | 331 | 2.6 | 6.1 | 0.00 | 0.00 | 0.00 | 21 | 1015.0 |
| 20260905181104 | 82 | 319 | 1.7 | 6.1 | 0.00 | 0.00 | 0.00 | 24 | 1015.0 |
| 20260905180104 | 81 | 290 | 1.7 | 6.1 | 0.00 | 0.00 | 0.00 | 24 | 1015.0 |
| 20260905175604 | 81 | 303 | 3.5 | 5.2 | 0.00 | 0.00 | 0.00 | 23 | 1015.0 |
| 20260905175104 | 81 | 304 | 1.7 | 6.1 | 0.00 | 0.00 | 0.00 | 24 | 1015.0 |
| 20260905174104 | 80 | 280 | 1.7 | 5.2 | 0.00 | 0.00 | 0.00 | 23 | 1014.7 |
| 20260905173604 | 80 | 265 | 1.7 | 5.2 | 0.00 | 0.00 | 0.00 | 24 | 1014.7 |
| 20260905173104 | 79 | 301 | 2.6 | 5.2 | 0.00 | 0.00 | 0.00 | 25 | 1014.6 |
| 20260905172603 | 78 | 290 | 2.6 | 4.3 | 0.00 | 0.00 | 0.00 | 28 | 1014.6 |
| 20260905172103 | 78 | 291 | 2.6 | 5.2 | 0.00 | 0.00 | 0.00 | 26 | 1014.7 |
| 20260905171603 | 78 | 291 | 2.6 | 5.2 | 0.00 | 0.00 | 0.00 | 26 | 1014.6 |
| 20260905171107 | 78 | 301 | 1.7 | 4.3 | 0.00 | 0.00 | 0.00 | 26 | 1014.6 |
| 20260905170604 | 78 | 302 | 2.6 | 4.3 | 0.00 | 0.00 | 0.00 | 26 | 1014.7 |
| 20260905170108 | 77 | 302 | 1.7 | 4.3 | 0.00 | 0.00 | 0.00 | 26 | 1014.7 |
| 20260905165604 | 77 | 306 | 1.7 | 4.3 | 0.00 | 0.00 | 0.00 | 26 | 1014.7 |
| 20260905165104 | 76 | 307 | 2.6 | 4.3 | 0.00 | 0.00 | 0.00 | 26 | 1014.7 |
| 20260905164604 | 76 | 306 | 2.6 | 4.3 | 0.00 | 0.00 | 0.00 | 27 | 1014.7 |
| 20260905163604 | 75 | 296 | 1.7 | 4.3 | 0.00 | 0.00 | 0.00 | 29 | 1014.6 |
| 20260905163104 | 75 | 297 | 1.7 | 4.3 | 0.00 | 0.00 | 0.00 | 29 | 1014.6 |
| 20260905161103 | 73 | 314 | 1.7 | 2.6 | 0.00 | 0.00 | 0.00 | 32 | 1014.6 |
| 20260905160603 | 72 | 321 | 2.6 | 2.6 | 0.00 | 0.00 | 0.00 | 31 | 1014.6 |
| 20260905160110 | 72 | 34 | 0.9 | 2.6 | 0.00 | 0.00 | 0.00 | 32 | 1014.5 |
| 20260905155604 | 72 | 34 | 1.7 | 2.6 | 0.00 | 0.00 | 0.00 | 31 | 1014.5 |
| 20260905155104 | 72 | 34 | 0.9 | 2.6 | 0.00 | 0.00 | 0.00 | 32 | 1014.5 |
| 20260905154603 | 72 | 34 | 0.0 | 1.7 | 0.00 | 0.00 | 0.00 | 34 | 1014.5 |
| 20260905154104 | 71 | 34 | 0.0 | 2.6 | 0.00 | 0.00 | 0.00 | 35 | 1014.5 |
| 20260905153604 | 70 | 34 | 0.9 | 2.6 | 0.00 | 0.00 | 0.00 | 36 | 1014.4 |
| 20260905153104 | 70 | 34 | 0.9 | 1.7 | 0.00 | 0.00 | 0.00 | 32 | 1014.4 |
| 20260905152103 | 71 | 34 | 0.0 | 0.9 | 0.00 | 0.00 | 0.00 | 37 | 1014.2 |
| 20260905150604 | 71 | 34 | 0.0 | 0.9 | 0.00 | 0.00 | 0.00 | 39 | 1014.2 |
| 20260905150109 | 70 | 34 | 0.0 | 0.9 | 0.00 | 0.00 | 0.00 | 31 | 1014.2 |
| 20260905145604 | 69 | 34 | 0.0 | 1.7 | 0.00 | 0.00 | 0.00 | 32 | 1014.2 |
| 20260905145104 | 68 | 34 | 0.0 | 1.7 | 0.00 | 0.00 | 0.00 | 32 | 1014.2 |
| 20260905144104 | 66 | 34 | 0.9 | 1.7 | 0.00 | 0.00 | 0.00 | 32 | 1014.1 |
| 20260905143604 | 65 | 34 | 1.7 | 1.7 | 0.00 | 0.00 | 0.00 | 32 | 1014.1 |
| 20260905143104 | 65 | 34 | 0.9 | 2.6 | 0.00 | 0.00 | 0.00 | 33 | 1014.0 |
| 20260905142604 | 64 | 34 | 0.9 | 2.6 | 0.00 | 0.00 | 0.00 | 36 | 1013.9 |
| 20260905142104 | 63 | 34 | 0.9 | 1.7 | 0.00 | 0.00 | 0.00 | 37 | 1013.9 |
| 20260905141604 | 63 | 34 | 0.9 | 1.7 | 0.00 | 0.00 | 0.00 | 37 | 1013.8 |
| 20260905140604 | 63 | 20 | 0.0 | 1.7 | 0.00 | 0.00 | 0.00 | 36 | 1013.7 |
| 20260905140104 | 63 | 20 | 0.9 | 1.7 | 0.00 | 0.00 | 0.00 | 36 | 1013.7 |
| 20260905135604 | 63 | 20 | 0.0 | 1.7 | 0.00 | 0.00 | 0.00 | 35 | 1013.7 |
| 20260905135104 | 63 | 20 | 0.9 | 2.6 | 0.00 | 0.00 | 0.00 | 35 | 1013.7 |
| 20260905134604 | 63 | 20 | 1.7 | 2.6 | 0.00 | 0.00 | 0.00 | 34 | 1013.7 |
| 20260905134104 | 63 | 19 | 0.9 | 1.7 | 0.00 | 0.00 | 0.00 | 35 | 1013.7 |
| 20260905133605 | 63 | 19 | 0.9 | 1.7 | 0.00 | 0.00 | 0.00 | 36 | 1013.7 |
| 20260905132604 | 63 | 19 | 0.9 | 1.7 | 0.00 | 0.00 | 0.00 | 35 | 1013.6 |
| 20260905132104 | 63 | 19 | 1.7 | 1.7 | 0.00 | 0.00 | 0.00 | 35 | 1013.6 |
| 20260905131604 | 63 | 19 | 1.7 | 1.7 | 0.00 | 0.00 | 0.00 | 36 | 1013.6 |
| 20260905131107 | 63 | 19 | 0.9 | 1.7 | 0.00 | 0.00 | 0.00 | 36 | 1013.7 |
| 20260905130605 | 63 | 19 | 0.9 | 1.7 | 0.00 | 0.00 | 0.00 | 36 | 1013.7 |
| 20260905130106 | 62 | 19 | 0.0 | 1.7 | 0.00 | 0.00 | 0.00 | 38 | 1013.8 |
| 20260905125604 | 62 | 19 | 0.9 | 1.7 | 0.00 | 0.00 | 0.00 | 37 | 1013.7 |
| 20260905125104 | 62 | 19 | 0.9 | 1.7 | 0.00 | 0.00 | 0.00 | 37 | 1013.7 |
| 20260905124604 | 62 | 19 | 0.0 | 1.7 | 0.00 | 0.00 | 0.00 | 36 | 1013.6 |
| 20260905124104 | 63 | 19 | 0.9 | 1.7 | 0.00 | 0.00 | 0.00 | 37 | 1013.5 |
| 20260905123604 | 63 | 19 | 0.9 | 1.7 | 0.00 | 0.00 | 0.00 | 37 | 1013.3 |
| 20260905123104 | 64 | 19 | 0.0 | 1.7 | 0.00 | 0.00 | 0.00 | 35 | 1013.3 |
| 20260905122604 | 64 | 19 | 0.9 | 1.7 | 0.00 | 0.00 | 0.00 | 36 | 1013.3 |
| 20260905122104 | 63 | 19 | 1.7 | 1.7 | 0.00 | 0.00 | 0.00 | 37 | 1013.3 |
| 20260905121104 | 63 | 19 | 1.7 | 2.6 | 0.00 | 0.00 | 0.00 | 38 | 1013.3 |
| 20260905120108 | 62 | 19 | 0.9 | 2.6 | 0.00 | 0.00 | 0.00 | 39 | 1013.3 |
| 20260905115604 | 62 | 19 | 0.9 | 2.6 | 0.00 | 0.00 | 0.00 | 39 | 1013.3 |
| 20260905115103 | 62 | 19 | 0.9 | 1.7 | 0.00 | 0.00 | 0.00 | 40 | 1013.3 |
| 20260905114603 | 62 | 19 | 0.9 | 1.7 | 0.00 | 0.00 | 0.00 | 39 | 1013.3 |
| 20260905113605 | 62 | 19 | 1.7 | 1.7 | 0.00 | 0.00 | 0.00 | 40 | 1013.2 |
| 20260905113104 | 62 | 19 | 0.9 | 1.7 | 0.00 | 0.00 | 0.00 | 40 | 1013.3 |
| 20260905112604 | 62 | 19 | 0.9 | 1.7 | 0.00 | 0.00 | 0.00 | 40 | 1013.3 |
| 20260905112104 | 62 | 19 | 0.9 | 1.7 | 0.00 | 0.00 | 0.00 | 40 | 1013.3 |
| 20260905111604 | 62 | 19 | 0.9 | 1.7 | 0.00 | 0.00 | 0.00 | 41 | 1013.3 |
| 20260905111107 | 62 | 19 | 0.9 | 1.7 | 0.00 | 0.00 | 0.00 | 40 | 1013.4 |
| 20260905110107 | 63 | 19 | 0.0 | 1.7 | 0.00 | 0.00 | 0.00 | 40 | 1013.4 |
| 20260905105604 | 63 | 19 | 0.9 | 1.7 | 0.00 | 0.00 | 0.00 | 41 | 1013.5 |
| 20260905105104 | 62 | 19 | 0.9 | 1.7 | 0.00 | 0.00 | 0.00 | 41 | 1013.6 |
| 20260905104604 | 62 | 19 | 0.9 | 1.7 | 0.00 | 0.00 | 0.00 | 41 | 1013.7 |
| 20260905104103 | 62 | 19 | 0.9 | 1.7 | 0.00 | 0.00 | 0.00 | 42 | 1013.7 |
| 20260905103604 | 63 | 19 | 0.9 | 1.7 | 0.00 | 0.00 | 0.00 | 42 | 1013.7 |
| 20260905103104 | 63 | 19 | 0.9 | 1.7 | 0.00 | 0.00 | 0.00 | 41 | 1013.7 |
| 20260905102603 | 63 | 19 | 0.9 | 1.7 | 0.00 | 0.00 | 0.00 | 41 | 1013.7 |
| 20260905102104 | 63 | 19 | 0.9 | 1.7 | 0.00 | 0.00 | 0.00 | 40 | 1013.7 |
| 20260905101104 | 63 | 19 | 1.7 | 1.7 | 0.00 | 0.00 | 0.00 | 41 | 1013.7 |
| 20260905100604 | 63 | 19 | 0.9 | 1.7 | 0.00 | 0.00 | 0.00 | 41 | 1013.7 |
| 20260905100104 | 63 | 19 | 0.9 | 1.7 | 0.00 | 0.00 | 0.00 | 41 | 1013.7 |
| 20260905095604 | 63 | 19 | 0.9 | 1.7 | 0.00 | 0.00 | 0.00 | 41 | 1013.7 |
| 20260905095104 | 63 | 19 | 0.9 | 1.7 | 0.00 | 0.00 | 0.00 | 41 | 1013.7 |
| 20260905094604 | 63 | 19 | 0.9 | 1.7 | 0.00 | 0.00 | 0.00 | 41 | 1013.7 |
| 20260905094104 | 63 | 19 | 0.9 | 1.7 | 0.00 | 0.00 | 0.00 | 41 | 1013.7 |
| 20260905093603 | 64 | 19 | 0.9 | 1.7 | 0.00 | 0.00 | 0.00 | 41 | 1013.7 |
| 20260905093103 | 64 | 19 | 0.9 | 1.7 | 0.00 | 0.00 | 0.00 | 41 | 1013.7 |
| 20260905092104 | 64 | 19 | 0.9 | 1.7 | 0.00 | 0.00 | 0.00 | 40 | 1013.7 |
| 20260905091604 | 64 | 19 | 0.9 | 1.7 | 0.00 | 0.00 | 0.00 | 39 | 1013.7 |
| 20260905091107 | 65 | 19 | 0.9 | 2.6 | 0.00 | 0.00 | 0.00 | 39 | 1013.7 |
| 20260905090604 | 65 | 19 | 0.9 | 2.6 | 0.00 | 0.00 | 0.00 | 38 | 1013.8 |
| 20260905090106 | 65 | 19 | 0.9 | 1.7 | 0.00 | 0.00 | 0.00 | 38 | 1013.7 |
| 20260905085604 | 64 | 19 | 0.9 | 1.7 | 0.00 | 0.00 | 0.00 | 39 | 1013.8 |
| 20260905085104 | 65 | 19 | 0.9 | 1.7 | 0.00 | 0.00 | 0.00 | 39 | 1013.8 |
| 20260905084604 | 65 | 19 | 0.9 | 1.7 | 0.00 | 0.00 | 0.00 | 39 | 1013.8 |
| 20260905084104 | 65 | 19 | 0.9 | 2.6 | 0.00 | 0.00 | 0.00 | 39 | 1013.8 |
| 20260905083603 | 65 | 19 | 0.9 | 2.6 | 0.00 | 0.00 | 0.00 | 38 | 1013.8 |
| 20260905083104 | 66 | 322 | 1.7 | 2.6 | 0.00 | 0.00 | 0.00 | 37 | 1013.9 |
| 20260905082604 | 66 | 284 | 1.7 | 2.6 | 0.00 | 0.00 | 0.00 | 37 | 1014.1 |
| 20260905082104 | 65 | 284 | 0.9 | 2.6 | 0.00 | 0.00 | 0.00 | 38 | 1014.2 |
| 20260905081603 | 65 | 284 | 1.7 | 2.6 | 0.00 | 0.00 | 0.00 | 38 | 1014.3 |
| 20260905081103 | 65 | 284 | 0.9 | 1.7 | 0.00 | 0.00 | 0.00 | 39 | 1014.3 |
| 20260905080604 | 65 | 284 | 0.9 | 1.7 | 0.00 | 0.00 | 0.00 | 38 | 1014.3 |
| 20260905080104 | 65 | 284 | 0.9 | 1.7 | 0.00 | 0.00 | 0.00 | 38 | 1014.3 |
| 20260905075604 | 65 | 284 | 0.9 | 1.7 | 0.00 | 0.00 | 0.00 | 38 | 1014.3 |
| 20260905075104 | 65 | 284 | 0.9 | 1.7 | 0.00 | 0.00 | 0.00 | 39 | 1014.3 |
| 20260905074604 | 65 | 284 | 0.9 | 1.7 | 0.00 | 0.00 | 0.00 | 38 | 1014.3 |
| 20260905074105 | 65 | 284 | 0.9 | 1.7 | 0.00 | 0.00 | 0.00 | 38 | 1014.3 |
| 20260905073604 | 66 | 284 | 0.9 | 1.7 | 0.00 | 0.00 | 0.00 | 38 | 1014.3 |
| 20260905073103 | 66 | 284 | 0.9 | 1.7 | 0.00 | 0.00 | 0.00 | 38 | 1014.3 |
| 20260905072104 | 66 | 284 | 0.0 | 0.9 | 0.00 | 0.00 | 0.00 | 38 | 1014.3 |
| 20260905071106 | 66 | 284 | 0.0 | 0.9 | 0.00 | 0.00 | 0.00 | 38 | 1014.3 |
| 20260905070604 | 66 | 284 | 0.0 | 0.9 | 0.00 | 0.00 | 0.00 | 38 | 1014.3 |
| 20260905070106 | 66 | 284 | 0.0 | 0.9 | 0.00 | 0.00 | 0.00 | 38 | 1014.2 |